Location: Kings Park
(40.8862°N, 73.2573°W)
Time: 10:03:07
(UTC+00:00)

CZ-4B R/B - Pass Details

Date: 29 October 2020
Orbit: 389 x 462 km, 97.6° (Epoch: 23 November)

Event Time Altitude Azimuth Distance (km) Brightness Sun altitude
Rises 23:21:38 0° 354° (N) 2,373 5.1 -17.4°
Reaches altitude 10° 23:24:10 10° 332° (NNW) 1,487 4.3 -17.9°
Maximum altitude 23:26:12 16° 292° (WNW) 1,159 4.3 -18.3°
Drops below altitude 10° 23:28:12 10° 252° (WSW) 1,456 5.1 -18.7°
Sets 23:30:39 0° 230° (SW) 2,297 5.8 -19.1°
